Home   Weather   Christiansted   Past weeks

Flag for US Virgin Islands Past Weather in Christiansted, US Virgin Islands — Yesterday and Last 2 Weeks

Now
76 °F

Clear.


Feels Like: 77 °F
Forecast: 74 / 81 °F
Wind: 10 mph from East

Location: Christiansted / Henry E. Rohlsen Airport - Saint Croix

Current Time: Apr 23, 2017 at 5:56:05 am

Latest Report: Apr 23, 2017 at 4:53 am


Visibility: 10 mi

Pressure: 29.94 "Hg

Humidity: 82%

Dew Point: 70 °F

Location of ChristianstedLocation

Past Weather in Christiansted — Graph

°F

Christiansted Temperature Yesterday

Maximum temperature yesterday: 83 °F (at 9:53 am)
Minimum temperature yesterday: 73 °F (at 3:53 am)
Average temperature yesterday: 78 °F

High & Low Weather Summary for the Past Weeks

 TemperatureHumidityPressure
High85 °F (Apr 8, 11:53 am)97% (Apr 21, 4:53 am)30.06 "Hg (Apr 21, 4:53 am)
Low70 °F (Apr 20, 1:53 am)55% (Apr 19, 2:53 pm)29.89 "Hg (Apr 12, 3:53 pm)
Average78 °F78%29.97 "Hg
* Reported Apr 8 3:53 am — Apr 23 3:53 am, Christiansted, Weather by CustomWeather, © 2017

Note: Actual official high and low records may vary slightly from our data, if they occured in-between our weather recording intervals... More about our weather records

Advertising

Christiansted Weather History for the Previous 24 Hours

Scroll right to see more
 ConditionsComfort  
Time TempWeatherWind HumidityBarometerVisibility
3:53 am
Sun, Apr 23
76 °FPassing clouds.10 mph82%29.93 "Hg10 mi
2:53 am76 °FPassing clouds.10 mph82%29.93 "Hg10 mi
1:53 am76 °FClear.8 mph82%29.96 "Hg10 mi
12:53 am76 °FPassing clouds.8 mph82%29.98 "Hg10 mi
11:53 pm
Sat, Apr 22
76 °FClear.8 mph82%29.99 "Hg10 mi
10:53 pm75 °FPassing clouds.6 mph85%30.02 "Hg10 mi
9:53 pm76 °FPassing clouds.9 mph82%30.01 "Hg10 mi
8:53 pm76 °FClear.9 mph82%30.00 "Hg10 mi
7:53 pm77 °FPassing clouds.9 mph79%29.99 "Hg10 mi
6:53 pm78 °FPassing clouds.12 mph76%29.98 "Hg10 mi
5:53 pm79 °FScattered clouds.14 mph72%29.96 "Hg10 mi
4:53 pm82 °FScattered clouds.15 mph67%29.94 "Hg10 mi
3:53 pm82 °FScattered clouds.17 mph67%29.94 "Hg10 mi
2:53 pm83 °FScattered clouds.14 mph68%29.96 "Hg10 mi
1:53 pm83 °FPassing clouds.16 mph65%29.97 "Hg10 mi
12:53 pm83 °FPassing clouds.17 mph65%30.00 "Hg10 mi
11:53 am83 °FScattered clouds.15 mph65%30.02 "Hg10 mi
10:53 am83 °FScattered clouds.18 mph65%30.03 "Hg10 mi
9:53 am83 °FScattered clouds.16 mph65%30.02 "Hg10 mi
8:53 am80 °FScattered clouds.14 mph71%30.01 "Hg10 mi
7:53 am79 °FPartly sunny.10 mph74%29.99 "Hg10 mi
6:53 am76 °FOvercast.9 mph82%29.98 "Hg10 mi
5:53 am75 °FOvercast.9 mph85%29.96 "Hg10 mi
Weather by CustomWeather, © 2017

See weather overviewHow to use our weather pages